User: anonymous   Login
Location: ?????
(31.8092°N, 35.2590°E)
Time: 07:22:31
(UTC+00:00)
Language:

Yuri Rocket - Orbit

View from above orbital plane
View from above orbital plane
View from above satellite
View from above satellite

Ground track
Ground track

The orbit data is extracted from the following two-line orbital elements,

1 10793U 78039B   21265.71642461  .00000069  00000-0 -71496-5 0  9992
2 10793  28.2299  57.5613 0883461  14.7076 347.7523 13.05453632 67619
Epoch (UTC): 22 September 2021 17:11:39
Eccentricity: 0.0883461
inclination: 28.2299°
perigee height: 567 km
apogee height: 1914 km
right ascension of ascending node: 57.5613°
argument of perigee: 14.7076°
revolutions per day: 13.05453632
mean anomaly at epoch: 347.7523°
orbit number at epoch: 6761

The dashed part of the orbit path shows where the satellite is in the earth's shadow,  

DLR